CAPE
0 0 0 0 0 0 0 0 0 0 0 0 0 0 0 0 0 0 0 0 0 0 0 0 0 0 0 0 0 0 0 0 0 0 0 0 0 0 0 0 0 0 0 0 0 0 0
0 0 0 0 0 0 0 0 0 0 0 0 0 0 0 0 0 0 0 0 0 0 0 0 0 0 0 0 0 0 0 0 0 0 0 0 0 0 0 0 0 0 0 0 0 0 0
0 0 0 0 0 0 0 0 0 0 0 0 0 0 0 0 0 0 0 0 0 0 0 0 0 0 0 0 0 0 0 0 0 0 0 0 0 0 0 0 0 0 0 0 0 0 0
0 0 0 0 0 0 0 0 0 0 0 0 0 0 0 0 0 0 0 0 0 0 0 0 0 0 0 0 0 0 0 0 0 0 0 0 0 0 0 0 0 0 0 0 0 0 0
0 0 0 0 0 0 0 0 0 0 0 0 0 0 0 0 0 0 0 0 0 0 0 0 0 0 0 0 0 0 0 0 0 0 0 0 0 0 0 0 0 0 0 0 0 0 0
0 0 0 0 0 0 0 0 0 0 0 0 0 0 0 0 0 0 0 0 0 0 0 0 0 0 0 0 0 0 0 0 0 0 0 0 0 0 0 0 0 0 0 0 0 0 0
0 0 0 0 0 0 0 0 0 0 0 0 0 0 0 0 0 0 0 0 0 0 0 0 0 0 0 0 0 0 0 0 0 0 0 0 0 0 0 0 0 0 0 0 0 0 0
0 0 0 0 0 0 0 0 0 0 0 0 0 0 0 0 0 0 0 0 0 0 0 0 0 0 0 0 0 0 0 0 0 0 0 0 0 0 0 0 0 0 0 0 0 0 0
0 0 0 0 0 0 0 0 0 0 0 0 0 0 0 0 0 0 0 0 0 0 0 0 0 0 0 0 0 0 0 0 0 0 0 0 0 0 0 0 0 0 0 0 0 0 0
0 0 0 0 0 0 0 0 0 0 0 0 0 0 0 0 0 0 0 0 0 0 0 0 0 0 0 0 0 0 0 0 0 0 0 0 0 0 0 0 0 0 0 0 0 0 0
0 0 0 0 0 0 0 0 0 0 0 0 0 0 0 0 0 0 0 0 0 0 0 0 0 0 0 0 0 0 0 0 0 0 0 0 0 0 0 0 0 0 0 0 0 0 0
0 0 0 0 0 0 0 0 0 0 0 0 0 0 0 0 0 0 0 0 0 0 0 0 0 0 0 0 0 0 0 0 0 0 0 0 0 0 0 0 0 0 0 0 0 0 0
0 0 0 0 0 0 0 0 0 0 0 0 0 0 0 0 0 0 0 0 0 0 0 0 0 0 0 0 0 0 0 0 0 0 0 0 0 0 0 0 0 0 0 0 0 0 0
0 0 0 0 0 0 0 0 0 0 0 0 0 0 0 0 0 0 0 0 0 0 0 0 0 0 0 0 0 0 0 0 0 0 0 0 0 0 0 0 0 0 0 0 0 0 0
0 0 0 0 0 0 0 0 0 0 0 0 0 0 0 0 0 0 0 0 0 0 0 0 0 0 0 0 0 0 0 0 0 0 0 0 0 0 0 0 0 0 0 0 0 0 0
0 0 0 0 0 0 0 0 0 0 0 0 0 0 0 0 0 0 0 0 0 0 0 0 0 0 0 0 0 0 0 0 0 0 0 0 0 0 0 0 0 0 0 0 0 0 0
0 0 0 0 0 0 0 0 0 0 0 0 0 0 0 0 0 0 0 0 0 0 0 0 0 0 0 0 0 0 0 0 0 0 0 0 0 0 0 0 0 0 0 0 0 0 0
2 0 0 1 0 0 0 0 0 0 0 0 0 0 0 0 0 0 0 0 0 0 0 0 0 0 0 0 0 0 0 0 0 0 0 0 0 0 0 0 0 0 0 0 0 0 0
4 1 0 0 1 0 0 0 0 0 0 0 0 0 0 0 0 0 0 0 0 0 0 0 0 0 0 0 0 0 0 0 0 0 0 0 0 0 0 0 0 0 0 0 0 0 0
0 0 4 0 0 1 1 0 0 0 0 0 0 0 0 0 0 0 0 0 0 0 0 0 0 0 0 0 0 0 0 0 0 0 0 0 0 0 0 0 0 0 0 0 0 0 0
0 0 0 3 1 0 1 0 0 0 0 0 0 0 0 0 0 0 0 0 0 0 0 0 0 0 0 0 0 0 0 0 0 0 0 0 0 0 0 0 0 0 0 0 0 0 0
1 2 3 6 1 0 1 0 0 0 0 0 0 0 0 0 0 0 0 0 0 0 0 0 0 0 0 0 0 0 0 0 0 0 0 0 0 0 0 0 0 0 0 0 0 0 0
0 3 4 7 2 0 1 1 0 0 0 0 0 0 0 0 0 0 0 0 0 0 0 0 0 0 0 0 0 0 0 0 0 0 0 0 0 0 0 0 0 0 0 0 0 0 0
1 1 4 4 3 0 1 0 0 0 0 0 0 0 0 0 0 0 0 0 0 0 0 0 0 0 0 0 0 0 0 0 0 0 0 0 0 0 0 0 0 0 0 0 0 0 0
0 0 2 0 1 0 1 1 0 0 0 0 0 0 0 0 0 0 0 0 0 0 0 0 0 0 0 0 0 0 0 0 0 0 0 0 0 0 0 0 0 0 0 0 0 0 0
0 2 0 0 0 0 1 1 0 0 0 0 0 0 0 0 0 0 0 0 0 0 0 0 0 0 0 0 0 0 0 0 0 0 0 0 0 0 0 0 0 0 0 0 0 0 0
4 4 2 0 0 0 1 1 0 0 0 0 0 0 0 0 0 0 0 0 0 0 0 0 0 0 0 0 0 0 0 0 0 0 0 0 0 0 0 0 0 0 0 0 0 0 1
0 0 0 0 0 0 1 2 0 0 0 0 0 0 0 0 0 0 0 0 0 0 0 0 0 0 0 0 0 0 0 0 0 0 0 0 0 0 0 0 0 0 0 0 0 0 0
0 0 1 0 0 0 1 2 0 0 0 0 0 0 0 3 0 0 0 0 0 0 0 0 0 0 0 0 0 0 0 0 0 0 0 0 0 0 0 0 0 0 0 0 0 0 0
CIN
0 0 0 0 0 0 0 0 0 0 0 0 0 0 0 0 0 0 0 0 0 0 0 0 0 0 0 0 0 0 0 0 0 0 0 0 0 0 0 0 0 0 0 0 0 0 0
0 0 0 0 0 0 0 0 0 0 0 0 0 0 0 0 0 0 0 0 0 0 0 0 0 0 0 0 0 0 0 0 0 0 0 0 0 0 0 0 0 0 0 0 0 0 0
0 0 0 0 0 0 0 0 0 0 0 0 0 0 0 0 0 0 0 0 0 0 0 0 0 0 0 0 0 0 0 0 0 0 0 0 0 0 0 0 0 0 0 0 0 0 0
0 0 0 0 0 0 0 0 0 0 0 0 0 0 0 0 0 0 0 0 0 0 0 0 0 0 0 0 0 0 0 0 0 0 0 0 0 0 0 0 0 0 0 0 0 0 0
0 0 0 0 0 0 0 0 0 0 0 0 0 0 0 0 0 0 0 0 0 0 0 0 0 0 0 0 0 0 0 0 0 0 0 0 0 0 0 0 0 0 0 0 0 0 0
0 0 0 0 0 0 0 0 0 0 0 0 0 0 0 0 0 0 0 0 0 0 0 0 0 0 0 0 0 0 0 0 0 0 0 0 0 0 0 0 0 0 0 0 0 0 0
0 0 0 0 0 0 0 0 0 0 0 0 0 0 0 0 0 0 0 0 0 0 0 0 0 0 0 0 0 0 0 0 0 0 0 0 0 0 0 0 0 0 0 0 0 0 0
0 0 0 0 0 0 0 0 0 0 0 0 0 0 0 0 0 0 0 0 0 0 0 0 0 0 0 0 0 0 0 0 0 0 0 0 0 0 0 0 0 0 0 0 0 0 0
0 0 0 0 0 0 0 0 0 0 0 0 0 0 0 0 0 0 0 0 0 0 0 0 0 0 0 0 0 0 0 0 0 0 0 0 0 0 0 0 0 0 0 0 0 0 0
0 0 0 0 0 0 0 0 0 0 0 0 0 0 0 0 0 0 0 0 0 0 0 0 0 0 0 0 0 0 0 0 0 0 0 0 0 0 0 0 0 0 0 0 0 0 0
0 0 0 0 0 0 0 0 0 0 0 0 0 0 0 0 0 0 0 0 0 0 0 0 0 0 0 0 0 0 0 0 0 0 0 0 0 0 0 0 0 0 0 0 0 0 0
0 0 0 0 0 0 0 0 0 0 0 0 0 0 0 0 0 0 0 0 0 0 0 0 0 0 0 0 0 0 0 0 0 0 0 0 0 0 0 0 0 0 0 0 0 0 0
0 0 0 0 0 0 0 0 0 0 0 0 0 0 0 0 0 0 0 0 0 0 0 0 0 0 0 0 0 0 0 0 0 0 0 0 0 0 0 0 0 0 0 0 0 0 0
0 0 0 0 0 0 0 0 0 0 0 0 0 0 0 0 0 0 0 0 0 0 0 0 0 0 0 0 0 0 0 0 0 0 0 0 0 0 0 0 0 0 0 0 0 0 0
0 0 0 0 0 0 0 0 0 0 0 0 0 0 0 0 0 0 0 0 0 0 0 0 0 0 0 0 0 0 0 0 0 0 0 0 0 0 0 0 0 0 0 0 0 0 0
0 0 0 0 0 0 0 0 0 0 0 0 0 0 0 0 0 0 0 0 0 0 0 0 0 0 0 0 0 0 0 0 0 0 0 0 0 0 0 0 0 0 0 0 0 0 0
0 0 0 0 0 0 0 0 0 0 0 0 0 0 0 0 0 0 0 0 0 0 0 0 0 0 0 0 0 0 0 0 0 0 0 0 0 0 0 0 0 0 0 0 0 0 0
-1 0 0 0 0 0 0 0 0 0 0 0 0 0 0 0 0 0 0 0 0 0 0 0 0 0 0 0 0 0 0 0 0 0 0 0 0 0 0 0 0 0 0 0 0 0 0
-3 -1 0 0 0 0 0 0 0 0 0 0 0 0 0 0 0 0 0 0 0 0 0 0 0 0 0 0 0 0 0 0 0 0 0 0 0 0 0 0 0 0 0 0 0 0 0
0 0 -5 0 0 0 0 0 0 0 0 0 0 0 0 0 0 0 0 0 0 0 0 0 0 0 0 0 0 0 0 0 0 0 0 0 0 0 0 0 0 0 0 0 0 0 0
0 0 -2 -5 -6 0 0 0 0 0 0 0 0 0 0 0 0 0 0 0 0 0 0 0 0 0 0 0 0 0 0 0 0 0 0 0 0 0 0 0 0 0 0 0 0 0 0
-1 -1 -3 -2 -7 0 0 0 0 0 0 0 0 0 0 0 0 0 0 0 0 0 0 0 0 0 0 0 0 0 0 0 0 0 0 0 0 0 0 0 0 0 0 0 0 0 0
0 -3 -2 -4 -6 0 0 0 0 0 0 0 0 0 0 0 0 0 0 0 0 0 0 0 0 0 0 0 0 0 0 0 0 0 0 0 0 0 0 0 0 0 0 0 0 0 0
-3 -3 -2 -3 -2 -5 0 0 0 0 0 0 0 0 0 0 0 0 0 0 0 0 0 0 0 0 0 0 0 0 0 0 0 0 0 0 0 0 0 0 0 0 0 0 0 0 0
-5 -1 -5 -2 -4 0 0 0 0 0 0 0 0 0 0 0 0 0 0 0 0 0 0 0 0 0 0 0 0 0 0 0 0 0 0 0 0 0 0 0 0 0 0 0 0 0 0
0 -11 0 -5 0 0 0 0 0 0 0 0 0 0 0 0 0 0 0 0 0 0 0 0 0 0 0 0 0 0 0 0 0 0 0 0 0 0 0 0 0 0 0 0 0 0 0
-19 -12 -14 0 0 0 0 0 0 0 0 0 0 0 0 0 0 0 0 0 0 0 0 0 0 0 0 0 0 0 0 0 0 0 0 0 0 0 0 0 0 0 0 0 0 0 0
0 -2 -4 0 0 0 0 0 0 0 0 0 0 0 0 0 0 0 0 0 0 0 0 0 0 0 0 0 0 0 0 0 0 0 0 0 0 0 0 0 0 0 0 0 0 0 0
0 -3 -10 0 0 0 0 0 0 0 0 0 0 0 0 -1 0 0 0 0 0 0 0 0 0 0 0 0 0 0 0 0 0 0 0 0 0 0 0 0 0 0 0 0 0 0 0
Wind_Speed
20 21 19 14 25 26 25 25 25 24 22 21 23 21 17 17 16 14 13 13 12 12 12 12 13 16 19 22 20 18 19 20 20 21 23 25 27 27 28 25 23 20 21 21 17 17 16
19 21 23 24 25 26 26 26 26 25 23 25 25 21 19 16 13 14 14 12 12 11 11 12 14 16 18 18 18 18 19 19 20 21 22 23 24 24 24 24 24 22 21 18 16 20 18
14 22 18 22 25 25 25 26 26 27 27 28 28 28 26 19 18 13 11 12 13 11 10 12 14 16 15 13 18 18 20 19 19 20 21 21 22 25 25 25 23 21 23 24 15 20 19
13 19 23 23 24 23 25 26 25 28 29 30 31 31 26 20 13 16 16 15 13 17 14 14 15 15 12 15 17 20 22 21 20 19 19 20 21 24 25 23 25 25 24 30 22 22 19
12 17 19 21 23 24 25 25 25 27 29 31 33 34 35 34 33 15 9 19 19 20 18 16 15 15 13 17 19 19 21 21 20 22 22 20 21 25 28 31 29 28 32 28 25 20 20
9 13 16 19 22 22 24 25 26 26 27 28 33 35 36 36 34 27 17 20 19 18 17 16 16 15 14 17 18 17 20 21 20 21 23 22 23 27 32 35 38 31 31 27 24 21 21
11 13 14 17 19 20 22 24 25 26 26 28 32 28 27 30 33 33 32 23 19 14 20 11 11 11 14 16 17 20 23 22 22 25 30 24 27 34 32 28 24 24 25 26 23 22 21
11 13 13 14 17 20 23 24 25 26 27 29 29 30 16 22 23 30 28 22 18 12 11 16 12 10 11 18 19 22 26 25 26 28 29 27 29 27 26 26 28 25 26 29 22 23 24
11 11 13 15 17 20 22 25 26 26 27 29 30 31 17 13 21 25 26 21 19 17 12 14 15 15 15 18 19 21 25 23 26 28 31 27 26 25 29 29 33 27 28 25 24 22 25
9 11 13 15 18 20 22 23 26 27 29 31 32 32 31 11 18 18 18 20 18 17 12 14 15 15 16 18 17 18 21 21 23 26 27 23 24 28 30 30 28 31 23 22 23 27 31
5 8 11 14 18 20 21 23 26 27 28 31 32 32 31 29 17 19 15 19 17 15 19 14 14 14 15 19 16 18 19 20 24 24 27 27 26 29 32 28 25 25 19 23 24 27 26
3 6 8 11 16 19 22 24 25 26 29 31 33 36 28 24 20 17 15 16 16 17 18 15 14 15 17 18 18 17 20 20 18 20 23 22 19 23 24 21 23 21 20 22 23 23 30
4 7 10 9 13 16 19 22 25 27 29 31 34 33 26 23 16 17 16 16 19 16 17 17 16 18 18 17 18 22 23 25 23 24 31 24 22 23 25 25 23 34 25 21 24 26 25
7 7 9 11 11 15 18 22 24 26 27 31 34 27 25 23 23 22 18 20 18 17 17 18 19 18 19 20 19 22 21 21 22 22 23 30 25 27 26 25 23 28 27 23 23 24 22
9 9 8 10 11 12 16 20 22 25 27 30 29 25 26 25 24 22 22 21 16 17 17 19 20 19 18 19 20 22 22 20 19 21 24 26 22 18 23 21 22 22 25 20 20 20 22
12 11 10 10 10 11 15 18 20 22 26 29 28 27 25 23 23 23 23 19 16 16 16 19 19 20 20 20 20 20 19 19 19 19 20 19 20 16 18 18 21 24 21 21 19 19 21
17 13 11 12 12 11 12 15 17 21 23 24 25 27 21 23 22 25 22 18 18 16 16 17 19 19 20 19 19 17 17 19 19 20 19 19 17 16 19 18 18 22 23 22 19 19 19
18 17 15 13 13 11 11 13 15 18 22 21 22 22 21 22 27 24 22 19 18 17 16 17 17 17 18 19 19 18 16 18 18 19 21 17 16 15 18 15 15 17 21 19 19 15 15
17 17 13 14 13 12 11 11 13 14 17 14 18 19 21 21 26 25 23 22 18 18 18 18 16 15 17 19 20 17 17 18 18 19 19 18 18 18 18 17 16 15 17 17 17 14 10
19 18 15 14 13 13 11 10 11 10 12 12 15 20 20 22 21 23 26 24 22 18 18 15 15 15 17 18 16 18 19 18 16 18 19 15 16 14 10 10 16 13 14 12 13 12 12
21 21 17 16 16 14 11 9 9 7 7 10 11 17 16 21 21 21 22 23 22 20 17 16 16 14 14 18 20 19 19 19 19 19 17 16 16 16 12 10 13 10 8 12 10 10 16
26 23 21 17 17 15 13 9 8 5 4 10 14 17 18 17 20 20 20 22 21 19 17 17 15 13 13 18 18 22 20 20 17 19 18 18 18 22 23 18 18 17 14 15 16 17 15
27 25 22 18 15 14 11 9 8 5 4 11 11 13 18 18 18 19 21 21 21 17 19 17 15 15 15 17 18 18 16 14 15 16 19 19 19 21 20 23 26 22 20 20 19 20 21
28 25 24 21 17 13 11 10 9 8 7 11 11 13 19 22 18 20 22 19 18 17 19 17 16 17 17 19 20 20 19 18 17 15 11 16 16 18 21 26 22 20 24 20 20 22 22
25 24 24 21 18 13 12 11 10 9 9 12 12 15 18 26 19 21 21 20 20 19 18 18 18 17 19 21 23 23 21 19 18 20 16 8 12 19 21 22 26 24 24 24 27 27 26
20 20 21 21 18 13 12 12 12 11 10 13 15 15 18 24 22 20 22 20 21 21 20 18 16 17 18 19 20 22 23 23 21 19 20 14 12 17 21 27 31 25 24 26 22 30 25
21 19 18 18 17 15 13 13 13 13 11 13 16 12 16 20 20 17 23 21 18 18 19 17 15 16 17 19 21 21 23 20 22 22 21 19 20 20 22 27 27 25 27 23 30 30 27
20 19 18 17 16 16 14 13 13 11 10 11 15 10 11 18 19 21 20 18 19 17 19 15 18 19 18 19 20 20 20 20 22 21 22 23 23 23 24 29 33 26 22 27 26 27 30
20 19 17 16 15 14 14 12 11 11 9 9 17 10 10 16 19 18 16 18 18 18 17 16 18 16 15 17 19 19 21 22 22 28 21 25 22 25 24 27 22 26 26 26 27 29 32
Wind_Direction
0 359 347 323 21 27 30 35 32 37 45 49 39 43 49 45 43 41 40 41 38 37 36 40 44 45 46 39 42 49 45 40 43 39 33 29 26 26 20 19 17 15 8 4 356 352 350
341 354 18 23 14 18 21 17 19 24 32 27 23 34 35 38 37 32 28 27 24 24 28 33 36 41 40 41 49 48 41 38 38 35 32 30 28 28 26 18 20 14 2 354 5 6 8
82 5 315 344 6 21 26 22 20 9 14 8 11 13 16 27 25 24 21 19 13 16 29 31 34 38 41 52 44 40 39 37 42 37 32 34 34 29 26 21 19 13 12 11 24 12 16
89 45 0 349 19 31 21 18 23 6 2 1 357 2 16 24 25 19 18 15 15 21 35 35 35 37 51 45 40 33 32 36 36 41 39 38 36 29 28 24 22 22 25 16 18 21 25
81 43 34 25 17 17 17 21 20 13 5 360 349 348 345 353 343 18 1 14 21 22 29 38 34 41 50 36 33 33 32 29 34 35 36 39 35 27 24 21 24 27 18 20 26 34 29
102 51 39 27 18 20 17 17 16 16 15 13 358 350 348 350 357 7 9 21 24 29 35 30 39 38 42 34 29 36 32 30 32 30 28 30 31 25 21 19 16 18 22 26 28 35 38
53 39 42 31 27 25 23 18 16 17 17 17 6 14 15 8 1 360 357 14 26 42 21 38 26 33 32 30 36 31 26 28 27 23 15 26 23 17 19 24 27 27 30 31 39 47 52
33 26 29 34 23 19 13 13 13 15 14 14 14 11 22 20 20 9 8 31 40 38 27 27 39 53 52 31 27 23 19 20 18 14 15 20 20 24 24 29 28 34 36 37 46 54 68
22 23 18 14 15 11 7 3 6 9 12 12 12 10 20 13 27 19 22 33 27 32 34 40 51 62 51 35 29 23 20 22 18 15 12 18 22 25 25 28 26 34 37 41 52 62 79
16 13 12 7 3 2 360 1 3 2 1 3 6 8 12 1 36 33 40 28 31 36 56 72 71 62 47 33 39 33 30 28 23 21 21 24 25 23 24 27 30 31 43 54 62 70 69
11 7 3 1 355 353 354 355 353 357 357 358 2 5 9 17 33 36 36 26 34 49 42 65 71 60 46 36 32 33 33 29 19 20 21 18 19 20 23 28 36 34 55 63 70 72 79
324 347 354 356 353 348 343 344 349 351 351 350 354 353 9 20 34 37 34 31 39 43 43 57 59 50 33 36 35 34 33 39 40 33 31 29 36 35 32 38 42 38 65 69 71 77 65
293 323 333 339 345 347 347 343 344 341 346 345 346 353 9 17 30 26 32 38 26 38 38 40 39 27 28 31 39 28 29 30 34 27 17 28 36 36 34 35 46 31 52 62 60 63 70
276 294 314 322 331 337 339 341 339 340 345 341 340 358 6 12 12 17 31 21 19 28 25 23 21 21 28 34 32 27 31 36 42 40 32 21 29 30 32 38 42 44 51 60 60 61 74
278 284 289 307 316 328 334 337 340 335 338 339 345 354 354 0 7 13 13 12 18 21 23 14 14 22 29 30 27 26 32 39 45 43 34 25 31 50 42 49 52 50 47 67 71 79 75
288 285 281 285 299 313 324 332 335 338 335 336 342 344 346 3 5 0 -0 5 11 18 21 15 14 19 16 18 26 30 36 39 40 46 40 40 34 58 47 59 58 52 57 58 66 66 64
293 289 287 292 292 299 313 325 331 335 336 341 340 336 352 359 4 345 348 355 0 8 16 18 7 6 11 18 23 28 35 31 36 32 43 42 50 43 46 52 59 48 47 53 63 66 60
296 295 289 285 292 287 298 314 326 333 335 338 339 337 350 355 340 341 341 346 355 356 3 2 9 4 9 13 15 20 31 24 30 29 26 47 50 45 41 62 72 62 46 49 47 65 64
299 296 285 294 282 289 292 301 318 330 334 347 339 336 344 347 336 335 338 338 342 344 347 355 3 10 6 5 7 16 17 19 24 23 25 24 27 32 47 52 54 47 44 49 48 53 59
301 301 292 291 282 280 282 287 306 322 331 342 343 337 341 340 338 335 331 332 331 342 342 352 358 2 355 357 4 2 2 9 15 12 13 21 19 20 28 29 19 17 22 30 27 32 30
298 300 295 291 290 279 275 278 290 309 322 334 335 329 341 336 334 332 331 331 330 332 337 342 348 354 356 350 349 349 357 0 359 3 14 14 5 5 0 357 356 353 355 0 355 352 347
297 297 297 291 290 283 270 265 272 289 320 317 320 328 336 335 333 330 329 329 326 329 329 332 334 347 350 341 342 340 345 351 357 1 6 1 355 350 346 357 358 354 350 341 336 337 331
297 297 298 296 290 280 263 258 254 248 285 311 319 330 327 330 333 328 324 324 326 330 326 326 333 337 337 339 341 338 339 342 342 344 344 343 346 349 346 346 342 345 352 349 348 344 337
294 295 296 298 294 281 259 254 248 237 242 310 317 324 316 313 316 319 321 322 320 319 320 327 331 331 339 342 341 337 332 332 332 328 328 335 340 342 337 338 339 350 349 347 341 338 337
291 292 293 294 293 280 260 253 238 232 238 297 308 314 315 310 314 315 314 315 319 318 315 318 323 333 336 339 336 337 340 341 348 350 347 338 338 337 337 334 331 330 335 333 328 326 331
289 290 290 290 287 276 262 250 242 245 250 287 292 309 314 309 312 317 315 313 309 310 313 317 330 334 337 335 334 330 331 333 335 340 350 351 339 331 332 326 326 335 335 334 332 319 330
288 285 284 283 281 273 261 254 249 252 253 281 301 294 305 300 314 319 314 315 318 314 316 325 329 329 331 324 322 325 327 333 330 330 333 338 332 316 317 320 324 331 330 333 321 322 329
284 280 280 278 274 269 261 257 248 242 241 277 300 292 284 301 307 315 318 314 317 313 311 324 326 323 322 317 319 326 328 331 329 330 331 326 327 324 325 319 317 335 332 323 328 328 326
279 278 275 275 266 261 254 248 235 229 233 272 298 292 291 304 313 322 321 320 319 316 315 319 319 327 325 322 323 329 325 327 326 323 330 322 323 324 322 322 331 334 331 330 328 324 324